GW3608 Weather Reports


Display with metric or nautical units.
time (UTC)temp
F
wind
direction
speed
MPH
gust
MPH
rain 1hr
in
rain 24hr
in
rain mn
in
humidity
%
barometer
mb
20260906131525 60 334 1.0 5.0 0.00 0.00 0.00 92 1017.9
20260906130031 60 28 1.0 6.0 0.00 0.00 0.00 94 1018.1
20260906124511 59 29 2.0 4.0 0.00 0.00 0.00 95 1017.9
20260906123018 59 49 0.0 4.0 0.00 0.00 0.00 95 1017.8
20260906121526 58 63 0.0 4.0 0.00 0.00 0.00 95 1017.7
20260906120029 58 330 0.0 3.0 0.00 0.00 0.00 95 1017.5
20260906114544 58 352 0.0 1.0 0.00 0.00 0.00 95 1017.4
20260906113014 58 352 0.0 1.0 0.00 0.00 0.00 95 1017.4
20260906111523 58 352 0.0 1.0 0.00 0.00 0.00 95 1017.4
20260906110028 58 352 0.0 2.0 0.00 0.00 0.00 95 1017.3
20260906104533 58 53 0.0 1.0 0.00 0.00 0.00 96 1017.1
20260906103031 58 35 0.0 4.0 0.00 0.00 0.00 96 1016.9
20260906101518 57 94 0.0 3.0 0.00 0.00 0.00 96 1016.7
20260906100010 57 86 0.0 1.0 0.00 0.00 0.00 95 1016.6
20260906094516 57 360 0.0 2.0 0.00 0.00 0.00 95 1016.5
20260906093016 57 64 0.0 2.0 0.00 0.00 0.00 95 1016.3
20260906091514 56 328 0.0 1.0 0.00 0.00 0.00 95 1016.2
20260906090025 55 272 0.0 0.0 0.00 0.00 0.00 95 1015.9
20260906084504 55 272 0.0 0.0 0.00 0.00 0.00 94 1015.9
20260906083004 56 272 0.0 0.0 0.00 0.00 0.00 95 1015.8
20260906081514 56 272 0.0 0.0 0.00 0.00 0.00 95 1015.7
20260906080017 55 272 0.0 0.0 0.00 0.00 0.00 94 1015.6
20260906074530 56 272 0.0 0.0 0.00 0.00 0.00 94 1015.5
20260906073004 56 272 0.0 0.0 0.00 0.00 0.00 95 1015.8
20260906071508 56 272 0.0 0.0 0.00 0.00 0.00 94 1015.7
20260906070014 56 272 0.0 0.0 0.00 0.00 0.00 94 1015.7
20260906064518 57 272 0.0 0.0 0.00 0.00 0.00 94 1015.6
20260906063024 57 272 0.0 0.0 0.00 0.00 0.00 94 1015.8
20260906061533 57 272 0.0 0.0 0.00 0.00 0.00 93 1015.8
20260906060011 57 272 0.0 0.0 0.00 0.00 0.00 94 1015.8
20260906054519 57 272 0.0 0.0 0.00 0.00 0.00 93 1015.8
20260906053024 58 272 0.0 0.0 0.00 0.00 0.00 93 1015.8
20260906051525 58 272 0.0 0.0 0.00 0.00 0.00 93 1015.8
20260906050029 58 272 0.0 0.0 0.00 0.00 0.00 92 1015.8
20260906044512 58 272 0.0 0.0 0.00 0.00 0.00 92 1015.8
20260906043020 59 40 0.0 2.0 0.00 0.00 0.00 92 1015.7
20260906041527 59 18 0.0 1.0 0.00 0.00 0.00 92 1015.8
20260906040032 59 360 0.0 1.0 0.00 0.00 0.00 91 1015.8
20260906034533 59 43 0.0 1.0 0.00 0.00 0.00 90 1015.7
20260906033015 60 68 0.0 1.0 0.00 0.00 0.00 90 1015.7
20260906031534 60 360 0.0 1.0 0.00 0.00 0.00 90 1015.5
20260906030027 60 352 0.0 1.0 0.00 0.00 0.00 90 1015.4
20260906024542 60 352 0.0 1.0 0.00 0.00 0.00 89 1015.4
20260906023033 60 35 0.0 1.0 0.00 0.00 0.00 89 1015.4
20260906021521 61 352 0.0 0.0 0.00 0.00 0.00 90 1015.5
20260906020028 61 352 0.0 0.0 0.00 0.00 0.00 89 1015.4
20260906014540 61 352 0.0 0.0 0.00 0.00 0.00 87 1015.2
20260906013042 63 352 0.0 0.0 0.00 0.00 0.00 86 1015.0
20260906011516 63 352 0.0 0.0 0.00 0.00 0.00 86 1015.1
20260906010025 63 352 0.0 2.0 0.00 0.00 0.00 85 1015.1
20260906004505 63 352 0.0 1.0 0.00 0.00 0.00 85 1015.0
20260906003008 63 40 0.0 1.0 0.00 0.00 0.00 84 1014.7
20260906001513 64 34 0.0 3.0 0.00 0.00 0.00 83 1014.6
20260906000017 64 351 0.0 1.0 0.00 0.00 0.00 82 1014.6
20260905234526 64 25 0.0 2.0 0.00 0.00 0.00 82 1014.6
20260905233003 65 352 0.0 2.0 0.00 0.00 0.00 82 1014.7
20260905231510 65 5 0.0 2.0 0.00 0.00 0.00 81 1014.7
20260905230014 66 52 0.0 4.0 0.00 0.00 0.00 78 1014.6
20260905224523 67 350 0.0 3.0 0.00 0.00 0.00 77 1014.6
20260905223025 68 41 1.0 6.0 0.00 0.00 0.00 75 1014.5
20260905221510 69 32 0.0 3.0 0.00 0.00 0.00 73 1014.3
20260905220011 69 9 0.0 3.0 0.00 0.00 0.00 73 1014.3
20260905214524 69 37 1.0 4.0 0.00 0.00 0.00 73 1014.1
20260905213109 69 339 1.0 6.0 0.00 0.00 0.00 72 1013.9
20260905211537 69 360 0.0 5.0 0.00 0.00 0.00 74 1013.9
20260905210011 69 26 1.0 5.0 0.00 0.00 0.00 73 1013.8
20260905204525 69 11 1.0 3.0 0.00 0.00 0.00 72 1013.6
20260905203023 69 70 0.0 4.0 0.00 0.00 0.00 72 1013.8
20260905201527 69 9 0.0 4.0 0.00 0.00 0.00 73 1013.9
20260905200007 70 234 0.0 4.0 0.00 0.00 0.00 70 1013.8
20260905194514 70 13 0.0 4.0 0.00 0.00 0.00 72 1013.8
20260905193017 70 11 0.0 6.0 0.00 0.00 0.00 69 1013.8
20260905191527 71 23 0.0 8.0 0.00 0.00 0.00 67 1013.9
20260905190027 70 126 0.0 4.0 0.00 0.00 0.00 69 1013.8
20260905184512 71 51 1.0 6.0 0.00 0.00 0.00 66 1013.9
20260905183017 70 30 0.0 5.0 0.00 0.00 0.00 70 1013.9
20260905181524 70 13 2.0 6.0 0.00 0.00 0.00 66 1013.9
20260905180025 70 5 1.0 7.0 0.00 0.00 0.00 70 1013.9
20260905174530 70 79 0.0 4.0 0.00 0.00 0.00 66 1013.8
20260905173012 70 57 1.0 6.0 0.00 0.00 0.00 66 1014.0
20260905171519 70 296 0.0 5.0 0.00 0.00 0.00 66 1014.0
20260905170026 69 5 0.0 4.0 0.00 0.00 0.00 70 1014.1
20260905164529 69 63 1.0 8.0 0.00 0.00 0.00 72 1014.2
20260905163034 68 74 1.0 4.0 0.00 0.00 0.00 71 1014.1
20260905161516 69 58 2.0 9.0 0.00 0.00 0.00 69 1014.2
20260905160004 68 61 1.0 7.0 0.00 0.00 0.00 74 1014.3
20260905154505 69 344 0.0 6.0 0.00 0.00 0.00 70 1014.4
20260905153006 68 80 0.0 6.0 0.00 0.00 0.00 72 1014.3
20260905151518 68 5 2.0 8.0 0.00 0.00 0.00 75 1014.4
20260905150018 65 351 0.0 6.0 0.00 0.00 0.00 79 1014.6
20260905144503 65 23 1.0 8.0 0.00 0.00 0.00 79 1014.5
20260905143015 65 9 1.0 7.0 0.00 0.00 0.00 82 1014.4
20260905141508 64 352 1.0 7.0 0.00 0.00 0.00 81 1014.5
20260905140017 64 74 1.0 8.0 0.00 0.00 0.00 82 1014.5
20260905134518 64 80 1.0 5.0 0.00 0.00 0.00 83 1014.6
20260905133004 64 68 0.0 8.0 0.00 0.00 0.00 84 1014.5